Other Public Products
Issued by NWS Grand Forks, ND

Home | Current Version | Previous Version | Text Only | Print | Product List | Glossary Off
Versions: 1 2 3 4 5 6 7 8 9 10 11 12 13 14 15 16 17 18 19 20 21 22 23 24 25 26 27 28 29 30 31 32 33 34 35 36 37 38 39 40 41 42 43 44 45 46 47 48 49 50

000
FPUS83 KFGF 232210
OPUFGF
PRAIRIE TO PINES WEATHER ROUNDUP
NATIONAL WEATHER SERVICE EASTERN NORTH DAKOTA/GRAND FORKS ND
500 PM CDT MON APR 23 2018

 **SATELLITE DATA USED TO AUGMENT SKY COVER AT AUTOMATED STATIONS**
 *****  WEATHER ACROSS EASTERN NORTH DAKOTA  *****

CITY           SKY/WX    TMP DP  RH WIND       PRES   REMARKS
GRAND FORKS    FAIR      63  36  36 VRB6      30.16F
GRND FORKS AFB NOT AVBL
GRND FORKS NWS   N/A     65  37  35 NE6       30.14F
BUXTON           N/A     62  40  43 N12         N/A
DEVILS LAKE    FAIR      58  35  42 N16       30.19F
FARGO          FAIR      67  39  35 N15G21    30.14F
WAHPETON ARPT  FAIR      68  36  30 NW7       30.13F
$$

 *****  WEATHER ACROSS CENTRAL AND WESTERN NORTH DAKOTA  *****

CITY           SKY/WX    TMP DP  RH WIND       PRES   REMARKS
JAMESTOWN      FAIR      64  38  38 NE15      30.14F
BISMARCK       CLOUDY    62  31  31 N15G25    30.16S
MINOT          CLOUDY    54  34  46 NW14      30.22F
MINOT AFB      NOT AVBL
GARRISON         N/A     53  36  52 N10G17    30.22S
WILLISTON      CLOUDY    51  27  39 N17       30.30S
DICKINSON      CLOUDY    50  33  52 N22G28    30.19S
HETTINGER      CLOUDY    54  31  41 NE30G40   30.11F
$$

 *****  OTHER OBSERVATIONS NORTHEAST NORTH DAKOTA  *****

CITY           SKY/WX    TMP DP  RH WIND       PRES   REMARKS
WALHALLA       FAIR      61  36  39 NW10G20   30.17F
LANGDON        FAIR      57  37  47 NW10      30.19S
CAVALIER         N/A     63  34  34 NW7G16    30.16F
GRAFTON        FAIR      61  34  36 N9G17     30.18F
CANDO          FAIR      57  34  41 N15       30.22S
FORT TOTTEN      N/A     60  32  34 N5        29.95S
ROLLA          MOCLDY    54  36  50 N18       30.21S
RUGBY          FAIR      55  36  47 NW16      30.20S
 ***** THE ABOVE OBSERVATIONS ARE NON NWS ARE NOT QUALITY
        CONTROLLED AND MAY MIS-REPORT RAIN FOR SNOW...
$$

 *****  OTHER OBSERVATIONS SOUTHEAST NORTH DAKOTA *****

CITY           SKY/WX    TMP DP  RH WIND       PRES   REMARKS
COOPERSTOWN    FAIR      61  41  48 N9        30.17F
VALLEY CITY    FAIR      63  39  42 E7G14     30.17F
OAKES            N/A     64  46  52 NE15      30.12F
GWINNER          N/A     64  48  55 N15       30.12F
SHEYENNE NWR     N/A     67  44  43 NE10      29.95S
BUFFALO          N/A     62  35  36 W7          N/A
WYNDMERE       NOT AVBL
 ***** THE ABOVE OBSERVATIONS ARE NON NWS ARE NOT QUALITY
       CONTROLLED AND MAY MIS-REPORT RAIN FOR SNOW...
$$

  *****  WEATHER ACROSS NORTHERN MINNESOTA  *****

CITY           SKY/WX    TMP DP  RH WIND       PRES   REMARKS
FLAG ISLAND    FAIR      54  28  37 CALM      30.13S
WARROAD        FAIR      61  34  36 NW8       30.15S
ROSEAU         FAIR      61  36  39 NW10      30.15F
HALLOCK        FAIR      63  28  27 N9G20     30.16F
THF RVR FALLS  FAIR      60  35  39 NW13G21   30.17F
HALSTAD        NOT AVBL
FOSSTON        FAIR      64  32  29 NW10      30.16F
BAUDETTE       FAIR      59  31  34 N14       30.13F
WASKISH        PTSUNNY   57  32  38 W9        30.13F
CROOKSTON      FAIR      63  37  39 N13       30.17F
$$
  *****  WEATHER ACROSS CENTRAL AND WEST MINNESOTA  *****

CITY           SKY/WX    TMP DP  RH WIND       PRES   REMARKS
BEMIDJI        FAIR      66  34  30 NW9       30.13F
PARK RAPIDS    FAIR      69  38  32 W10       30.11F
WADENA         FAIR      66  43  42 NW5       30.12F
DETROIT LAKES  FAIR      64  37  36 NW6       30.15S
MOORHEAD       FAIR      66  37  34 N14       30.15F
FERGUS FALLS   FAIR      66  39  37 W3        30.10F
ELBOW LAKE     FAIR      66  40  38 CALM      30.14S
MORRIS MN      FAIR      68  41  37 NW6       30.12F
STAPLES        FAIR      68  34  28 NW3G9     30.12F
WHEATON        FAIR      68  36  30 SE3       30.13F
$$
  *****  WEATHER ELSEWHERE ACROSS MINNESOTA  *****

CITY           SKY/WX    TMP DP  RH WIND       PRES   REMARKS
DULUTH         FAIR      67  37  33 VRB5      30.10F
INTRNTL FALLS  FAIR      62  31  31 W15       30.11F
ELY            FAIR      64  28  25 W10G18    30.09F
CLOQUET        FAIR      66  32  28 SW7       30.11F
BRAINERD       FAIR      70  37  29 NW9G17    30.12F
HIBBING        FAIR      66  34  30 NW13      30.10F
ALEXANDRIA     FAIR      71  37  28 N5        30.14F
SAINT CLOUD    FAIR      68  37  32 SW3       30.12F
MINNEAPOLIS    FAIR      70  35  27 N3        30.13F
$$

  *****  WEATHER ACROSS SOUTH DAKOTA  *****

CITY           SKY/WX    TMP DP  RH WIND       PRES   REMARKS
SIOUX FALLS    FAIR      69  34  27 VRB6      30.11F
BROOKINGS      FAIR      66  37  34 CALM      30.13F
WATERTOWN      FAIR      67  35  30 VRB3      30.12F
HURON          FAIR      70  39  32 SE9       30.08F
SISSETON         N/A     68  38  33 E3        30.10F
ABERDEEN       CLOUDY    71  36  27 E9        30.09F
MITCHELL       CLOUDY    69  40  34 MISG      30.09F
PIERRE         FAIR      70  40  33 SE14      30.03F
MOBRIDGE       FAIR      72  41  32 S12       30.04F
RAPID CITY     CLOUDY    64  41  42 SE9       30.00S
$$

  *****  SOME WEATHER IN NEARBY STATES *****

CITY           SKY/WX    TMP DP  RH WIND       PRES   REMARKS
GLASGOW MT     FAIR      52  20  28 N14       30.35S
GREAT FALLS MT FAIR      49  24  37 E9        30.41S
CHEYENNE WY    LGT RAIN  62  38  40 S10G22    30.03F
SCOTTSBLUFF NE FAIR      67  42  40 SE18      29.97F
OMAHA NE       FAIR      75  28  17 E8        30.06F
DES MOINES IA  FAIR      73  27  18 E9        30.07F
DAVENPORT IA   FAIR      70  30  22 NE12      30.07F
CHICAGO IL     CLOUDY    62  27  26 NE16      30.09F
EAU CLAIRE WI  FAIR      69  29  22 CALM      30.13F
LA CROSSE WI   FAIR      71  26  18 W7        30.12F
$$

  *****  SOME NATIONAL WEATHER *****

CITY           SKY/WX    TMP DP  RH WIND       PRES   REMARKS
LA GUARDIA NY  FAIR      58  33  39 SE12      30.42F
RALEIGH NC     PTSUNNY   64  52  64 E17G33    30.20F
ATLANTA GA     PTSUNNY   68  65  90 NE16      29.87R
NEW ORLEANS LA FAIR      74  56  53 W12       29.93F
OKLAHOMA CITY  FAIR      72  47  40 N8        30.02F
ALBUQUERQUE NM PTSUNNY   78  23  13 SE8       30.05F
SALT LAKE CITY PTSUNNY   65  24  21 NW14G25   30.15S
LOS ANGELES CA FAIR      64  54  69 W15       29.98F
BOISE ID       FAIR      64  29  26 NW15G25   30.21S
SEATTLE WA     FAIR      69  38  32 N17       30.26F
$$

*** WEATHER ACROSS MANITOBA...SASKATCHEWAN AND ONTARIO ***
                ***ONTARIO***

CITY           SKY/WX    TMP DP  RH WIND       PRES   REMARKS
GERALDTON      PTSUNNY   61  30  31 W15G21    29.99S
THUNDER BAY    MOSUNNY   70  34  26 W16G25    30.03F
SIOUX LOOKOUT  MOSUNNY   50  32  50 NW15G28   30.10R
TORONTO        MOSUNNY   63  19  19 E15       30.23F
BIG TROUT LK   CLOUDY    36  28  75 NW16G24   29.99R
PICKLE LAKE    PTSUNNY   45  32  61 W13G22    30.03R
DRYDEN         SUNNY     55  30  38 W15G22    30.11R
KENORA         MOSUNNY   54  30  40 NW8G17    30.13F
$$
                *** MANITOBA***

CITY           SKY/WX    TMP DP  RH WIND       PRES   REMARKS
BRANDON        PTSUNNY   54  36  50 NW16G24   30.21S
DAUPHIN        PTSUNNY   52  30  43 W15G25    30.20S
ISLAND LAKE    CLOUDY    32  23  69 NW9G18    30.12R WCI  24
PILOT MOUND      N/A     55  34  44 NW13G18     N/A
THE PAS        PTSUNNY   36  25  64 N13G21    30.23R
THOMPSON       LGT SNOW  21  16  79 N9        30.20R VSB 1   WCI  11
WINNIPEG       PTSUNNY   57  32  38 NW14G20   30.16F
LYNN LAKE      LGT SNOW  25  21  86 N8        30.26R WCI  16
CHURCHILL      PTSUNNY   21  16  79 N20G26    30.23R WCI   6
GILLAM         LGT SNOW  23  19  86 N15       30.14R WCI  10
$$
                ***SASKATCHEWAN***

CITY           SKY/WX    TMP DP  RH WIND       PRES   REMARKS
ESTEVAN        PTSUNNY   52  19  28 NW21G28   30.29R
KINDERSLEY     MOSUNNY   54  23  30 N17G29    30.35F
LLOYDMINSTER   MOSUNNY   55  21  26 NW16G23   30.32S
PRINCE ALBERT  MOSUNNY   52  21  30 NW16      30.31S
REGINA         PTSUNNY   54  19  26 N20G30    30.31F
YORKTON        MOSUNNY   50  27  40 NW23G32   30.25S



USA.gov is the U.S. government's official web portal to all federal, state and local government web resources and services.